QPF
0.00 0.02 0.02 0.00 0.00 0.00 0.00 0.00 0.00 0.00 0.00 0.00 0.01 0.00 0.00 0.01 0.05 0.05 0.02 0.03 0.02 0.07 0.01 0.01 0.00 0.00 0.00 0.01 0.02 0.00 0.00 0.00 0.00 0.00 0.00 0.00 0.00 0.00 0.00 0.00 0.00 0.00 0.00
0.00 0.01 0.06 0.00 0.00 0.00 0.00 0.00 0.00 0.00 0.00 0.00 0.01 0.01 0.00 0.01 0.03 0.01 0.01 0.04 0.00 0.00 0.01 0.00 0.02 0.04 0.04 0.03 0.01 0.00 0.00 0.00 0.00 0.00 0.00 0.00 0.00 0.00 0.00 0.00 0.00 0.00 0.00
0.00 0.00 0.01 0.00 0.00 0.00 0.00 0.00 0.00 0.00 0.00 0.00 0.00 0.00 0.02 0.03 0.04 0.02 0.02 0.01 0.00 0.00 0.00 0.00 0.00 0.01 0.01 0.01 0.00 0.00 0.00 0.00 0.00 0.00 0.00 0.00 0.00 0.00 0.00 0.00 0.00 0.00 0.00
0.00 0.01 0.01 0.00 0.00 0.00 0.00 0.00 0.00 0.00 0.00 0.00 0.00 0.03 0.07 0.06 0.02 0.02 0.01 0.03 0.00 0.00 0.00 0.00 0.00 0.01 0.00 0.00 0.00 0.00 0.01 0.00 0.00 0.00 0.00 0.00 0.00 0.00 0.00 0.00 0.00 0.00 0.00
0.00 0.00 0.01 0.01 0.00 0.00 0.00 0.00 0.00 0.00 0.00 0.00 0.00 0.00 0.00 0.00 0.01 0.05 0.06 0.07 0.02 0.01 0.02 0.01 0.00 0.00 0.00 0.01 0.00 0.00 0.01 0.00 0.00 0.00 0.00 0.00 0.00 0.00 0.00 0.00 0.00 0.00 0.00
0.01 0.00 0.00 0.02 0.01 0.00 0.00 0.00 0.00 0.00 0.00 0.00 0.00 0.00 0.00 0.00 0.11 0.16 0.19 0.14 0.03 0.00 0.02 0.03 0.02 0.04 0.00 0.03 0.04 0.00 0.08 0.14 0.06 0.07 0.01 0.00 0.00 0.00 0.00 0.00 0.00 0.00 0.00
0.00 0.00 0.00 0.00 0.03 0.01 0.00 0.00 0.00 0.00 0.00 0.00 0.00 0.00 0.00 0.02 0.21 0.39 0.32 0.15 0.06 0.06 0.07 0.07 0.05 0.05 0.16 0.12 0.08 0.20 0.24 0.31 0.28 0.16 0.02 0.00 0.00 0.00 0.00 0.00 0.00 0.00 0.00
0.00 0.00 0.01 0.03 0.01 0.00 0.00 0.00 0.00 0.00 0.00 0.00 0.00 0.00 0.00 0.00 0.07 0.33 0.33 0.16 0.11 0.24 0.29 0.04 0.00 0.04 0.04 0.03 0.03 0.09 0.15 0.07 0.05 0.06 0.01 0.00 0.00 0.00 0.00 0.00 0.00 0.00 0.00
0.00 0.00 0.02 0.01 0.00 0.00 0.00 0.00 0.00 0.01 0.01 0.01 0.00 0.00 0.00 0.01 0.04 0.12 0.17 0.06 0.03 0.03 0.01 0.01 0.06 0.03 0.11 0.11 0.03 0.10 0.09 0.02 0.01 0.00 0.00 0.00 0.00 0.00 0.00 0.00 0.00 0.01 0.00
0.00 0.00 0.00 0.00 0.00 0.00 0.00 0.00 0.00 0.01 0.02 0.03 0.01 0.00 0.01 0.00 0.00 0.00 0.01 0.01 0.02 0.01 0.00 0.02 0.08 0.03 0.03 0.00 0.00 0.00 0.00 0.00 0.00 0.00 0.00 0.00 0.00 0.00 0.00 0.00 0.00 0.01 0.01
0.00 0.00 0.00 0.00 0.00 0.00 0.00 0.00 0.00 0.00 0.01 0.00 0.02 0.00 0.00 0.00 0.00 0.00 0.00 0.00 0.00 0.00 0.00 0.00 0.00 0.00 0.00 0.00 0.00 0.00 0.00 0.00 0.00 0.00 0.00 0.00 0.00 0.00 0.00 0.00 0.00 0.00 0.00
0.00 0.00 0.00 0.00 0.00 0.00 0.00 0.02 0.02 0.03 0.06 0.04 0.03 0.00 0.01 0.01 0.00 0.00 0.00 0.00 0.00 0.00 0.00 0.00 0.01 0.01 0.00 0.00 0.00 0.00 0.00 0.00 0.00 0.00 0.00 0.00 0.00 0.00 0.00 0.00 0.00 0.00 0.00
0.01 0.00 0.00 0.00 0.00 0.00 0.00 0.01 0.02 0.07 0.07 0.05 0.01 0.02 0.03 0.00 0.00 0.00 0.00 0.00 0.00 0.00 0.00 0.00 0.00 0.00 0.00 0.00 0.00 0.00 0.00 0.00 0.00 0.00 0.00 0.00 0.00 0.00 0.00 0.00 0.00 0.00 0.00
0.07 0.03 0.00 0.01 0.08 0.07 0.05 0.06 0.04 0.01 0.01 0.00 0.00 0.00 0.00 0.00 0.00 0.00 0.00 0.00 0.00 0.00 0.00 0.00 0.00 0.00 0.00 0.00 0.00 0.00 0.00 0.00 0.00 0.00 0.00 0.00 0.00 0.00 0.00 0.00 0.00 0.00 0.00
0.03 0.21 0.31 0.34 0.36 0.25 0.23 0.14 0.05 0.03 0.02 0.02 0.01 0.00 0.00 0.00 0.00 0.00 0.00 0.00 0.00 0.00 0.00 0.00 0.00 0.00 0.00 0.00 0.00 0.00 0.00 0.00 0.00 0.00 0.00 0.00 0.00 0.00 0.00 0.00 0.00 0.00 0.00
0.06 0.15 0.24 0.41 0.60 0.42 0.25 0.11 0.05 0.03 0.02 0.01 0.00 0.00 0.00 0.00 0.00 0.00 0.00 0.00 0.00 0.00 0.00 0.00 0.00 0.00 0.00 0.00 0.00 0.00 0.00 0.00 0.00 0.00 0.00 0.00 0.00 0.00 0.00 0.00 0.00 0.00 0.00
0.02 0.03 0.03 0.11 0.26 0.43 0.23 0.05 0.02 0.01 0.01 0.01 0.01 0.00 0.00 0.00 0.00 0.00 0.00 0.01 0.01 0.00 0.00 0.00 0.00 0.00 0.00 0.00 0.00 0.00 0.00 0.00 0.00 0.00 0.00 0.00 0.00 0.00 0.00 0.00 0.00 0.00 0.00
0.01 0.02 0.02 0.08 0.14 0.09 0.06 0.01 0.00 0.00 0.00 0.00 0.00 0.00 0.00 0.00 0.00 0.00 0.00 0.00 0.00 0.00 0.00 0.00 0.00 0.00 0.00 0.00 0.00 0.00 0.00 0.00 0.00 0.00 0.00 0.00 0.00 0.00 0.00 0.00 0.00 0.00 0.00
0.02 0.05 0.02 0.16 0.17 0.11 0.04 0.02 0.01 0.00 0.00 0.00 0.00 0.00 0.00 0.00 0.01 0.01 0.01 0.00 0.00 0.00 0.00 0.00 0.00 0.00 0.00 0.00 0.00 0.00 0.00 0.00 0.00 0.00 0.00 0.00 0.00 0.00 0.00 0.00 0.00 0.00 0.00
0.01 0.11 0.04 0.23 0.32 0.10 0.01 0.01 0.00 0.00 0.00 0.00 0.00 0.00 0.00 0.00 0.00 0.00 0.00 0.00 0.00 0.00 0.00 0.00 0.00 0.00 0.00 0.00 0.00 0.00 0.00 0.00 0.00 0.00 0.00 0.00 0.00 0.00 0.00 0.00 0.00 0.00 0.00
0.00 0.08 0.16 0.09 0.10 0.04 0.00 0.00 0.00 0.00 0.00 0.00 0.00 0.00 0.00 0.00 0.00 0.00 0.00 0.00 0.00 0.00 0.00 0.00 0.00 0.00 0.00 0.00 0.00 0.00 0.00 0.00 0.00 0.00 0.00 0.00 0.00 0.00 0.00 0.00 0.00 0.00 0.00
0.01 0.02 0.17 0.20 0.09 0.01 0.00 0.00 0.00 0.00 0.00 0.00 0.00 0.00 0.00 0.00 0.00 0.00 0.00 0.00 0.00 0.00 0.00 0.00 0.00 0.00 0.00 0.00 0.00 0.00 0.00 0.00 0.00 0.00 0.00 0.00 0.00 0.00 0.00 0.00 0.00 0.00 0.00
0.08 0.07 0.01 0.16 0.23 0.09 0.07 0.02 0.00 0.00 0.00 0.00 0.00 0.00 0.00 0.00 0.00 0.00 0.00 0.00 0.00 0.00 0.00 0.00 0.00 0.00 0.00 0.00 0.00 0.00 0.00 0.00 0.00 0.00 0.00 0.00 0.00 0.00 0.00 0.00 0.00 0.00 0.00
0.17 0.27 0.05 0.12 0.32 0.15 0.06 0.02 0.00 0.00 0.00 0.00 0.00 0.00 0.00 0.00 0.00 0.00 0.00 0.00 0.00 0.00 0.00 0.00 0.00 0.00 0.00 0.00 0.00 0.00 0.00 0.00 0.00 0.00 0.00 0.00 0.00 0.00 0.00 0.00 0.00 0.00 0.00
0.01 0.11 0.26 0.24 0.22 0.11 0.03 0.00 0.00 0.00 0.00 0.00 0.00 0.00 0.00 0.00 0.00 0.00 0.00 0.00 0.00 0.00 0.00 0.00 0.00 0.00 0.00 0.00 0.00 0.00 0.00 0.00 0.00 0.00 0.00 0.00 0.00 0.00 0.00 0.00 0.00 0.00 0.00
0.01 0.01 0.21 0.21 0.11 0.04 0.00 0.00 0.00 0.00 0.00 0.00 0.00 0.00 0.00 0.00 0.00 0.00 0.00 0.00 0.00 0.00 0.00 0.00 0.00 0.00 0.00 0.00 0.00 0.00 0.00 0.00 0.00 0.00 0.00 0.00 0.00 0.00 0.00 0.00 0.00 0.00 0.00
MSLP
1010.60 1011.64 1012.27 1012.99 1013.60 1014.04 1014.45 1014.87 1015.27 1015.56 1015.86 1016.20 1016.43 1016.57 1016.76 1017.00 1017.28 1017.72 1018.07 1018.23 1018.48 1018.65 1018.74 1018.84 1018.92 1019.03 1019.08 1019.10 1019.20 1019.29 1019.32 1019.34 1019.19 1018.69 1018.55 1017.93 1017.68 1017.36 1017.18 1017.23 1017.28 1017.25 1017.11
1009.88 1010.86 1011.53 1012.08 1012.86 1013.51 1013.91 1014.25 1014.63 1015.01 1015.30 1015.64 1016.03 1016.30 1016.40 1016.62 1016.96 1017.37 1017.64 1017.76 1017.97 1018.23 1018.23 1018.47 1018.39 1018.57 1018.67 1018.72 1018.79 1018.85 1018.83 1018.85 1018.88 1018.52 1018.26 1017.92 1017.69 1017.20 1016.93 1016.90 1016.64 1016.52 1016.55
1009.23 1009.81 1010.83 1011.34 1011.92 1012.59 1013.20 1013.67 1014.12 1014.48 1014.83 1015.16 1015.48 1015.76 1015.89 1016.16 1016.53 1016.99 1017.23 1017.33 1017.48 1017.62 1017.76 1017.93 1017.94 1018.07 1018.09 1018.11 1018.12 1018.23 1018.32 1018.37 1018.47 1018.38 1017.96 1017.72 1017.43 1017.16 1016.94 1016.67 1016.36 1016.01 1015.87
1008.72 1009.15 1009.65 1010.14 1010.79 1011.61 1012.40 1012.99 1013.49 1013.84 1014.29 1014.61 1014.89 1015.20 1015.46 1015.74 1016.04 1016.33 1016.64 1016.94 1017.01 1017.07 1017.13 1017.23 1017.32 1017.34 1017.34 1017.42 1017.55 1017.57 1017.68 1017.77 1017.84 1017.84 1017.61 1017.37 1017.11 1016.73 1016.80 1016.54 1016.16 1015.82 1015.55
1008.10 1008.78 1009.27 1010.04 1010.68 1011.21 1011.67 1012.23 1012.84 1013.34 1013.68 1014.01 1014.34 1014.63 1014.94 1015.27 1015.47 1015.86 1016.13 1016.33 1016.59 1016.57 1016.57 1016.51 1016.57 1016.63 1016.60 1016.64 1016.95 1016.92 1017.05 1017.23 1017.41 1017.44 1017.28 1017.04 1016.68 1016.48 1016.35 1015.91 1015.86 1015.37 1015.09
1007.53 1007.84 1009.10 1009.57 1009.85 1010.49 1011.27 1011.39 1012.01 1012.50 1012.92 1013.32 1013.60 1013.83 1014.20 1014.46 1014.77 1015.10 1015.51 1015.94 1016.14 1016.10 1015.83 1015.75 1015.75 1015.79 1015.84 1015.91 1016.08 1016.17 1016.30 1016.51 1016.75 1017.00 1016.73 1016.33 1015.89 1015.90 1015.74 1015.77 1015.74 1015.47 1014.93
1006.63 1007.69 1008.22 1008.54 1009.18 1009.77 1010.12 1010.91 1011.10 1011.41 1011.96 1012.28 1012.58 1013.00 1013.27 1013.46 1013.80 1014.32 1015.30 1015.52 1015.72 1015.66 1015.29 1015.15 1015.18 1015.11 1015.18 1015.37 1015.29 1015.52 1015.74 1016.05 1016.05 1016.40 1016.35 1016.03 1015.83 1015.67 1015.58 1015.55 1015.47 1015.17 1014.68
1006.00 1006.47 1006.24 1007.38 1008.57 1009.50 1009.21 1010.04 1010.48 1010.80 1011.04 1011.42 1011.88 1012.17 1012.43 1012.68 1013.14 1013.84 1014.03 1014.58 1014.74 1015.13 1014.73 1014.59 1014.63 1014.66 1014.83 1014.97 1015.18 1015.19 1015.58 1015.72 1015.92 1016.18 1016.16 1016.05 1016.05 1015.80 1015.62 1015.31 1015.05 1014.65 1014.30
1005.17 1005.37 1005.56 1006.57 1006.38 1007.79 1008.84 1009.40 1009.87 1010.47 1010.74 1010.96 1011.19 1011.47 1011.79 1012.11 1012.35 1012.88 1013.68 1014.08 1014.20 1014.11 1014.14 1014.35 1014.38 1014.47 1014.64 1014.71 1014.77 1014.97 1015.30 1015.72 1015.87 1016.06 1016.03 1016.02 1016.01 1015.78 1015.41 1015.17 1014.84 1014.54 1013.87
1004.56 1004.82 1005.05 1005.57 1006.62 1007.09 1007.88 1008.59 1008.95 1009.50 1009.78 1010.15 1010.53 1010.76 1011.10 1011.42 1011.71 1012.06 1012.56 1012.93 1013.30 1013.61 1014.07 1014.31 1014.32 1014.45 1014.65 1014.78 1014.68 1015.02 1015.51 1015.94 1016.01 1015.96 1016.01 1015.88 1015.82 1015.62 1015.38 1015.18 1014.99 1014.56 1014.09
1004.22 1004.75 1005.29 1005.83 1006.38 1006.60 1007.25 1007.98 1008.38 1008.92 1009.45 1009.67 1009.92 1010.11 1010.49 1011.11 1011.89 1012.04 1012.18 1012.46 1012.74 1013.25 1013.79 1014.35 1014.77 1015.00 1015.01 1014.89 1014.96 1015.33 1015.66 1015.95 1016.11 1016.08 1016.03 1016.10 1015.93 1015.80 1015.57 1015.33 1015.09 1014.93 1014.69
1004.18 1004.43 1004.85 1005.15 1005.70 1006.21 1006.86 1007.45 1008.17 1008.61 1009.10 1009.47 1009.78 1010.42 1010.76 1011.12 1011.60 1012.01 1012.19 1012.42 1012.63 1012.96 1013.52 1014.16 1014.79 1015.06 1015.08 1015.38 1015.51 1015.83 1016.01 1016.15 1016.20 1016.05 1015.97 1016.04 1015.91 1015.74 1015.60 1015.39 1015.18 1015.10 1015.02
1004.13 1003.91 1004.17 1004.57 1005.20 1005.61 1006.37 1007.05 1007.83 1008.41 1008.76 1009.43 1009.79 1010.49 1011.06 1011.52 1012.09 1012.36 1012.40 1012.58 1012.87 1013.18 1013.55 1014.15 1014.78 1015.24 1015.43 1015.77 1015.98 1016.16 1016.35 1016.29 1016.16 1016.05 1016.07 1016.08 1016.01 1015.90 1015.56 1015.48 1015.27 1015.09 1015.03
1003.72 1003.25 1003.77 1004.40 1004.91 1005.42 1006.05 1006.86 1007.61 1007.97 1008.75 1009.36 1009.84 1010.33 1011.01 1011.64 1012.07 1012.52 1012.74 1013.01 1013.17 1013.48 1014.06 1014.64 1015.09 1015.38 1015.60 1015.79 1016.11 1016.45 1016.42 1016.30 1016.16 1016.18 1016.28 1016.25 1016.14 1015.94 1015.83 1015.80 1015.54 1015.24 1015.01
1003.69 1003.42 1003.74 1004.35 1005.19 1006.10 1007.03 1007.52 1007.92 1008.24 1008.48 1008.76 1009.37 1009.91 1010.63 1011.39 1011.71 1012.10 1012.47 1012.90 1013.04 1013.47 1014.04 1014.68 1015.17 1015.46 1015.69 1015.73 1015.98 1016.23 1016.39 1016.52 1016.40 1016.47 1016.35 1016.28 1016.25 1016.20 1016.09 1015.99 1015.70 1015.42 1015.37
1003.44 1003.61 1003.66 1004.08 1005.35 1006.74 1008.05 1008.50 1009.07 1009.18 1009.11 1008.95 1009.05 1009.48 1010.42 1010.56 1011.31 1012.03 1012.53 1012.87 1013.13 1013.51 1013.88 1014.39 1014.80 1015.06 1015.15 1015.33 1015.59 1015.84 1016.21 1016.40 1016.42 1016.57 1016.50 1016.43 1016.44 1016.29 1016.11 1016.12 1015.98 1015.65 1015.55
1003.04 1003.24 1003.96 1004.35 1003.92 1005.21 1006.66 1008.36 1009.18 1009.87 1009.99 1009.67 1009.59 1009.80 1009.84 1010.39 1010.95 1011.59 1012.39 1012.94 1013.29 1013.43 1013.51 1014.01 1014.24 1014.50 1014.61 1014.78 1015.02 1015.26 1015.55 1015.85 1016.16 1016.42 1016.42 1016.36 1016.38 1016.22 1016.04 1016.05 1016.05 1015.84 1015.71
1002.72 1002.99 1003.64 1004.37 1004.55 1004.40 1004.49 1006.60 1007.67 1009.01 1009.97 1010.24 1010.42 1010.50 1010.34 1010.62 1011.20 1011.63 1012.16 1012.83 1013.57 1013.67 1013.45 1013.55 1013.63 1013.87 1014.05 1014.05 1014.22 1014.48 1014.88 1015.35 1015.71 1016.02 1016.09 1016.03 1016.07 1016.11 1015.99 1015.99 1016.16 1015.95 1015.72
1002.16 1002.40 1002.97 1003.40 1003.49 1003.57 1004.36 1004.96 1005.17 1007.89 1009.44 1009.95 1010.64 1011.11 1011.30 1011.19 1011.43 1011.86 1012.01 1011.89 1012.38 1012.67 1012.83 1013.00 1013.05 1013.21 1013.22 1013.36 1013.53 1013.85 1014.18 1014.74 1015.17 1015.43 1015.46 1015.61 1015.69 1015.75 1015.73 1015.79 1015.93 1015.94 1015.76
1001.63 1001.54 1002.05 1002.64 1003.11 1003.31 1003.92 1003.17 1003.59 1006.62 1008.75 1009.47 1009.87 1010.28 1010.84 1011.19 1011.50 1011.59 1011.51 1011.46 1011.61 1011.78 1012.02 1012.16 1012.25 1012.56 1012.69 1012.77 1013.05 1013.48 1013.89 1014.30 1014.65 1014.86 1014.93 1015.07 1015.13 1015.40 1015.31 1015.30 1015.40 1015.42 1015.46
1001.40 1001.40 1001.55 1001.97 1002.30 1002.43 1003.02 1002.20 1003.23 1004.66 1007.48 1008.27 1008.84 1009.28 1009.65 1010.00 1010.31 1010.44 1010.43 1010.55 1010.77 1010.92 1011.18 1011.49 1011.77 1011.98 1012.32 1012.56 1012.81 1013.12 1013.33 1013.47 1013.73 1013.93 1014.13 1014.39 1014.60 1014.64 1014.69 1014.67 1014.74 1014.85 1014.79
1001.02 1001.31 1001.47 1001.41 1001.83 1002.48 1002.30 1002.41 1002.55 1003.91 1006.10 1007.08 1008.17 1008.89 1009.61 1009.82 1009.58 1009.31 1009.24 1009.58 1009.92 1010.15 1010.66 1011.02 1011.12 1011.23 1011.56 1011.89 1012.07 1012.28 1012.54 1012.71 1012.98 1013.29 1013.57 1013.84 1014.02 1014.13 1014.19 1014.18 1014.19 1014.26 1014.30
1000.79 1000.84 1001.20 1001.41 1001.28 1002.14 1002.32 1002.16 1002.88 1003.68 1004.91 1005.96 1007.20 1008.13 1008.98 1009.26 1008.93 1008.35 1008.32 1008.98 1009.47 1009.60 1010.04 1010.51 1010.78 1010.92 1010.92 1011.02 1011.19 1011.46 1011.79 1011.84 1011.92 1012.33 1012.75 1013.07 1013.27 1013.35 1013.48 1013.45 1013.52 1013.73 1013.83
1000.40 1000.47 1000.61 1000.93 1001.27 1001.26 1002.27 1002.24 1002.61 1003.14 1004.27 1005.24 1006.37 1007.03 1007.39 1007.77 1007.77 1007.36 1007.71 1008.35 1008.56 1008.99 1009.47 1009.63 1009.95 1010.10 1010.38 1010.48 1010.63 1010.99 1011.09 1011.08 1011.37 1011.51 1011.78 1012.10 1012.28 1012.47 1012.55 1012.60 1012.68 1012.85 1013.08
999.95 999.91 1000.07 1000.15 1000.43 1001.16 1001.84 1001.76 1002.42 1003.08 1003.87 1004.53 1005.56 1005.89 1006.05 1006.50 1006.62 1006.76 1007.19 1007.70 1008.02 1008.47 1008.87 1009.00 1009.28 1009.44 1009.63 1009.89 1009.98 1010.13 1010.31 1010.53 1010.51 1010.49 1010.72 1011.02 1011.31 1011.52 1011.67 1011.74 1011.68 1011.93 1012.16
999.61 999.72 1000.15 1000.11 1000.47 1001.08 1000.97 1001.41 1002.21 1002.63 1003.29 1003.88 1004.40 1004.75 1005.13 1005.31 1005.78 1006.42 1006.80 1007.28 1007.63 1008.16 1008.61 1008.80 1009.06 1009.28 1009.56 1009.95 1010.44 1010.78 1010.76 1010.72 1010.66 1010.73 1010.47 1010.48 1010.67 1010.78 1010.88 1010.83 1010.76 1010.92 1011.13
Thickness
5778 5771 5767 5763 5760 5758 5756 5755 5754 5754 5754 5752 5752 5754 5754 5754 5753 5750 5750 5750 5748 5748 5749 5749 5750 5751 5750 5750 5752 5752 5752 5753 5749 5758 5760 5764 5764 5767 5768 5767 5766 5766 5767
5780 5774 5770 5767 5763 5759 5756 5756 5755 5754 5755 5755 5753 5753 5755 5756 5754 5750 5748 5750 5748 5747 5748 5747 5749 5750 5749 5749 5750 5750 5751 5753 5752 5751 5757 5759 5759 5764 5765 5765 5766 5766 5766
5782 5780 5773 5769 5766 5761 5757 5756 5756 5754 5754 5754 5754 5753 5754 5754 5753 5749 5748 5749 5748 5748 5747 5747 5748 5750 5749 5750 5752 5751 5751 5752 5751 5750 5751 5756 5757 5759 5760 5761 5762 5764 5765
5786 5783 5779 5778 5773 5768 5763 5758 5755 5754 5752 5752 5752 5752 5751 5751 5751 5750 5749 5748 5748 5748 5748 5748 5748 5750 5751 5751 5750 5751 5751 5750 5749 5749 5749 5750 5752 5756 5755 5754 5757 5760 5760
5786 5782 5777 5771 5769 5768 5766 5761 5756 5752 5751 5751 5751 5751 5751 5750 5751 5749 5749 5748 5746 5747 5748 5750 5750 5751 5752 5752 5749 5749 5749 5747 5745 5744 5744 5745 5747 5747 5747 5753 5751 5754 5757
5783 5783 5772 5767 5771 5766 5761 5764 5761 5755 5753 5753 5753 5753 5752 5753 5752 5749 5747 5743 5743 5744 5747 5750 5752 5752 5752 5751 5749 5748 5748 5744 5741 5738 5740 5742 5746 5745 5746 5744 5743 5743 5745
5787 5779 5774 5769 5767 5761 5763 5762 5764 5763 5761 5760 5759 5757 5756 5757 5755 5750 5742 5741 5740 5742 5747 5749 5751 5752 5751 5749 5746 5746 5744 5740 5738 5735 5736 5738 5739 5740 5740 5738 5736 5737 5740
5785 5781 5768 5776 5763 5756 5769 5763 5763 5763 5763 5762 5760 5760 5760 5760 5756 5749 5745 5743 5742 5739 5745 5748 5749 5748 5748 5747 5745 5744 5740 5739 5737 5734 5734 5733 5732 5733 5733 5734 5734 5735 5737
5785 5784 5771 5758 5781 5772 5765 5763 5762 5762 5762 5762 5762 5760 5759 5758 5758 5754 5747 5743 5742 5744 5748 5747 5747 5746 5743 5742 5744 5741 5737 5734 5731 5729 5729 5727 5726 5726 5727 5727 5726 5725 5728
5784 5781 5781 5777 5770 5768 5764 5762 5765 5764 5764 5762 5761 5762 5760 5760 5757 5757 5755 5753 5747 5745 5743 5742 5743 5744 5740 5740 5742 5737 5732 5727 5725 5724 5723 5722 5720 5719 5719 5719 5718 5718 5719
5780 5777 5771 5768 5764 5765 5763 5762 5761 5759 5757 5757 5758 5760 5761 5758 5751 5751 5754 5753 5750 5745 5741 5739 5736 5734 5733 5734 5734 5730 5725 5721 5718 5716 5715 5713 5713 5712 5711 5710 5709 5709 5708
5771 5772 5771 5770 5765 5762 5760 5758 5756 5754 5752 5751 5751 5748 5749 5750 5749 5746 5747 5748 5746 5744 5741 5737 5731 5729 5729 5726 5724 5720 5717 5713 5710 5710 5709 5707 5707 5707 5705 5703 5702 5701 5699
5762 5768 5771 5770 5767 5763 5758 5755 5750 5748 5746 5744 5745 5741 5738 5740 5738 5737 5739 5740 5740 5739 5736 5731 5725 5721 5720 5718 5714 5711 5706 5705 5704 5703 5702 5700 5700 5698 5698 5697 5696 5696 5694
5755 5764 5766 5763 5760 5759 5757 5753 5748 5745 5740 5739 5737 5736 5735 5732 5732 5732 5733 5733 5731 5729 5724 5719 5717 5715 5713 5711 5706 5700 5698 5698 5698 5697 5694 5693 5692 5692 5691 5690 5690 5690 5689
5746 5752 5755 5753 5749 5743 5738 5737 5738 5735 5736 5736 5734 5734 5732 5729 5730 5729 5728 5726 5726 5723 5718 5713 5709 5707 5703 5703 5699 5694 5690 5689 5689 5687 5687 5686 5685 5685 5684 5684 5684 5683 5681
5738 5742 5745 5741 5732 5722 5716 5714 5713 5716 5720 5726 5730 5732 5728 5730 5725 5722 5719 5717 5716 5715 5713 5708 5704 5701 5700 5697 5693 5689 5684 5682 5682 5680 5680 5679 5677 5678 5678 5677 5676 5677 5674
5733 5735 5733 5730 5734 5712 5720 5712 5708 5704 5704 5711 5718 5721 5727 5726 5721 5718 5713 5710 5708 5708 5709 5703 5700 5697 5695 5693 5690 5686 5682 5680 5677 5674 5673 5673 5672 5672 5673 5672 5670 5670 5668
5727 5726 5724 5724 5725 5729 5737 5723 5717 5707 5703 5706 5703 5708 5713 5714 5712 5710 5707 5704 5699 5697 5700 5698 5696 5693 5690 5690 5687 5684 5680 5677 5674 5671 5670 5670 5669 5668 5667 5666 5663 5663 5662
5720 5723 5722 5723 5726 5729 5731 5730 5732 5710 5699 5698 5695 5695 5696 5700 5701 5700 5700 5705 5702 5699 5695 5693 5691 5688 5688 5686 5684 5681 5679 5675 5672 5669 5669 5667 5666 5664 5664 5662 5659 5654 5653
5713 5719 5722 5720 5719 5723 5723 5735 5737 5713 5693 5692 5695 5699 5696 5698 5700 5700 5700 5700 5699 5697 5693 5689 5687 5684 5683 5683 5681 5678 5675 5672 5669 5667 5666 5665 5664 5661 5661 5659 5657 5654 5651
5701 5708 5713 5714 5718 5720 5722 5733 5731 5724 5696 5695 5695 5698 5697 5702 5703 5704 5703 5700 5697 5695 5691 5688 5685 5683 5678 5677 5676 5673 5671 5671 5669 5668 5666 5664 5661 5659 5658 5657 5654 5652 5650
5693 5697 5700 5707 5708 5707 5713 5718 5721 5717 5703 5698 5693 5694 5688 5694 5700 5705 5706 5701 5696 5695 5689 5684 5683 5681 5678 5676 5674 5672 5670 5669 5667 5665 5663 5660 5658 5656 5654 5651 5649 5647 5645
5684 5691 5692 5692 5696 5693 5697 5705 5707 5711 5707 5700 5694 5692 5686 5688 5695 5704 5704 5697 5692 5691 5686 5681 5678 5678 5679 5676 5675 5673 5671 5670 5670 5666 5662 5658 5655 5654 5651 5650 5647 5644 5641
5678 5682 5680 5681 5681 5684 5684 5694 5705 5707 5704 5697 5692 5692 5691 5693 5696 5703 5700 5694 5692 5689 5684 5682 5679 5678 5676 5674 5673 5669 5668 5668 5665 5664 5661 5658 5655 5652 5651 5648 5644 5641 5637
5674 5678 5676 5674 5680 5679 5684 5695 5700 5702 5698 5697 5691 5693 5698 5697 5699 5699 5695 5691 5689 5686 5682 5681 5677 5676 5674 5672 5671 5670 5669 5669 5669 5668 5664 5660 5656 5653 5649 5645 5642 5638 5633
5670 5673 5672 5672 5676 5679 5691 5694 5695 5698 5696 5693 5691 5694 5697 5700 5697 5691 5689 5686 5683 5679 5675 5675 5671 5670 5669 5665 5661 5661 5662 5661 5658 5657 5656 5654 5651 5647 5643 5640 5638 5635 5631